When you browse on this site, cookies collect data to enhance your experience and personalize the content and advertising you see.
Visit our Privacy Policy to learn more. By continuing to use the site, you agree to this use of cookies and data.
  • In Romania
  • List of Countries
  • For 7 days
  • Water Temperature
  • Weather Map
  • Weather Widgets
  • user-avatar
    Login

    Hourly Weather Kitzbuhel

    Today, 18 November, Monday

    Time Temperature Precipitation Wind Pressure Humidity
    00:00 +4°C° 0.1 mm 1 mps 667 mmHg 95%
    01:00 +4°C° 0 mm 1 mps 667 mmHg 94%
    02:00 +3°C° 0.1 mm 1 mps 667 mmHg 94%
    03:00 +3°C° 0.1 mm 1 mps 667 mmHg 94%
    04:00 +2°C° 0.1 mm 2 mps 667 mmHg 95%
    05:00 +3°C° 0 mm 1 mps 668 mmHg 94%
    06:00 +2°C° 0 mm 1 mps 668 mmHg 94%
    07:00 +2°C° 0 mm 1 mps 669 mmHg 93%
    08:00 +2°C° 0 mm 1 mps 669 mmHg 93%
    09:00 +3°C° 0 mm 1 mps 670 mmHg 92%
    10:00 +3°C° 0 mm 1 mps 671 mmHg 91%
    11:00 +4°C° 0 mm 1 mps 671 mmHg 90%
    12:00 +4°C° 0 mm 1 mps 671 mmHg 88%
    13:00 +4°C° 0 mm 2 mps 672 mmHg 87%
    14:00 +3°C° 0 mm 2 mps 672 mmHg 89%
    15:00 +2°C° 0 mm 2 mps 672 mmHg 91%
    16:00 +2°C° 0 mm 1 mps 672 mmHg 92%
    17:00 -1°C° 0 mm 2 mps 672 mmHg 91%
    18:00 -1°C° 0 mm 2 mps 673 mmHg 90%
    19:00 -2°C° 0 mm 2 mps 673 mmHg 89%
    20:00 -2°C° 0 mm 2 mps 673 mmHg 88%
    21:00 -2°C° 0 mm 2 mps 673 mmHg 88%
    22:00 -3°C° 0 mm 2 mps 674 mmHg 87%
    23:00 -3°C° 0 mm 2 mps 674 mmHg 87%

    Tomorrow, 19 November, Tuesday

    Time Temperature Precipitation Wind Pressure Humidity
    00:00 -3°C° 0 mm 2 mps 674 mmHg 87%
    01:00 -3°C° 0 mm 2 mps 674 mmHg 87%
    02:00 -3°C° 0 mm 2 mps 673 mmHg 87%
    03:00 -2°C° 0 mm 2 mps 673 mmHg 87%
    04:00 -2°C° 0 mm 2 mps 673 mmHg 87%
    05:00 -2°C° 0 mm 2 mps 673 mmHg 87%
    06:00 -2°C° 0 mm 2 mps 673 mmHg 87%
    07:00 -1°C° 0 mm 2 mps 673 mmHg 87%
    08:00 +1°C° 0 mm 2 mps 674 mmHg 87%
    09:00 +3°C° 0 mm 2 mps 674 mmHg 86%
    10:00 +4°C° 0 mm 2 mps 674 mmHg 85%
    11:00 +5°C° 0 mm 2 mps 674 mmHg 85%
    12:00 +5°C° 0 mm 2 mps 674 mmHg 85%
    13:00 +6°C° 0 mm 2 mps 674 mmHg 86%
    14:00 +5°C° 0 mm 2 mps 674 mmHg 88%
    15:00 +4°C° 0 mm 2 mps 673 mmHg 91%
    16:00 +4°C° 0 mm 2 mps 673 mmHg 94%
    17:00 +3°C° 0 mm 2 mps 673 mmHg 94%
    18:00 +3°C° 0 mm 2 mps 673 mmHg 93%
    19:00 +2°C° 0 mm 2 mps 673 mmHg 93%
    20:00 +2°C° 0 mm 2 mps 674 mmHg 92%
    21:00 +3°C° 0 mm 2 mps 674 mmHg 92%
    22:00 +3°C° 0 mm 2 mps 674 mmHg 91%
    23:00 +3°C° 0 mm 2 mps 674 mmHg 91%

    Day after tomorrow, 20 November, Wednesday

    Time Temperature Precipitation Wind Pressure Humidity
    00:00 +2°C° 0 mm 2 mps 674 mmHg 92%
    01:00 +3°C° 0 mm 1 mps 674 mmHg 92%
    02:00 +3°C° 0 mm 1 mps 674 mmHg 93%
    03:00 +3°C° 0 mm 1 mps 674 mmHg 94%
    04:00 +3°C° 0 mm 1 mps 673 mmHg 94%
    05:00 +3°C° 0 mm 1 mps 674 mmHg 94%
    06:00 +3°C° 0 mm 1 mps 674 mmHg 94%
    07:00 +2°C° 0 mm 0 mps 674 mmHg 93%
    08:00 +3°C° 0 mm 0 mps 674 mmHg 93%
    09:00 +3°C° 0 mm 0 mps 674 mmHg 92%
    10:00 +4°C° 0 mm 0 mps 674 mmHg 92%
    11:00 +5°C° 0 mm 0 mps 674 mmHg 90%
    12:00 +6°C° 0 mm 1 mps 674 mmHg 88%
    13:00 +7°C° 0 mm 1 mps 674 mmHg 87%
    14:00 +6°C° 0 mm 1 mps 674 mmHg 89%
    15:00 +5°C° 0 mm 1 mps 673 mmHg 91%
    16:00 +5°C° 0 mm 1 mps 673 mmHg 94%
    17:00 +4°C° 0 mm 1 mps 673 mmHg 93%
    18:00 +3°C° 0 mm 1 mps 673 mmHg 93%
    19:00 +3°C° 0 mm 1 mps 673 mmHg 93%
    20:00 +1°C° 0 mm 2 mps 673 mmHg 92%
    21:00 +1°C° 0 mm 2 mps 673 mmHg 91%
    22:00 +1°C° 0 mm 2 mps 673 mmHg 90%
    23:00 +1°C° 0 mm 2 mps 673 mmHg 90%

    21 November, Thursday

    Time Temperature Precipitation Wind Pressure Humidity
    00:00 +1°C° 0 mm 2 mps 673 mmHg 89%
    01:00 -1°C° 0 mm 2 mps 673 mmHg 89%
    02:00 -1°C° 0 mm 2 mps 672 mmHg 88%
    03:00 -1°C° 0 mm 2 mps 672 mmHg 87%
    04:00 -1°C° 0 mm 2 mps 672 mmHg 87%
    05:00 -1°C° 0 mm 2 mps 672 mmHg 87%
    06:00 -1°C° 0 mm 2 mps 672 mmHg 86%
    07:00 -1°C° 0 mm 2 mps 672 mmHg 86%
    08:00 +1°C° 0 mm 2 mps 672 mmHg 85%
    09:00 +4°C° 0 mm 1 mps 673 mmHg 83%
    10:00 +5°C° 0 mm 1 mps 673 mmHg 81%
    11:00 +6°C° 0 mm 1 mps 673 mmHg 81%
    12:00 +6°C° 0 mm 1 mps 673 mmHg 81%
    13:00 +7°C° 0 mm 1 mps 673 mmHg 80%
    14:00 +6°C° 0 mm 1 mps 672 mmHg 84%
    15:00 +5°C° 0 mm 1 mps 672 mmHg 88%
    16:00 +4°C° 0 mm 1 mps 672 mmHg 92%
    17:00 +3°C° 0 mm 1 mps 672 mmHg 91%
    18:00 +1°C° 0 mm 2 mps 672 mmHg 89%
    19:00 -1°C° 0 mm 2 mps 673 mmHg 88%
    20:00 -1°C° 0 mm 2 mps 673 mmHg 87%
    21:00 -1°C° 0 mm 2 mps 673 mmHg 85%
    22:00 -2°C° 0 mm 2 mps 673 mmHg 83%
    23:00 -2°C° 0 mm 2 mps 673 mmHg 82%

    22 November, Friday

    Time Temperature Precipitation Wind Pressure Humidity
    00:00 -2°C° 0 mm 2 mps 673 mmHg 81%
    01:00 -2°C° 0 mm 2 mps 673 mmHg 80%
    02:00 -2°C° 0 mm 2 mps 673 mmHg 80%
    03:00 -2°C° 0 mm 2 mps 673 mmHg 79%
    04:00 -2°C° 0 mm 2 mps 673 mmHg 79%
    05:00 -2°C° 0 mm 2 mps 673 mmHg 78%
    06:00 -2°C° 0 mm 2 mps 674 mmHg 78%
    07:00 -2°C° 0 mm 2 mps 674 mmHg 78%
    08:00 +1°C° 0 mm 2 mps 674 mmHg 77%
    09:00 +2°C° 0 mm 2 mps 674 mmHg 76%
    10:00 +5°C° 0 mm 1 mps 675 mmHg 75%
    11:00 +6°C° 0 mm 1 mps 674 mmHg 76%
    12:00 +7°C° 0 mm 1 mps 674 mmHg 76%
    13:00 +7°C° 0 mm 1 mps 673 mmHg 76%
    14:00 +5°C° 0 mm 2 mps 673 mmHg 80%
    15:00 +4°C° 0 mm 2 mps 673 mmHg 84%
    16:00 +3°C° 0 mm 2 mps 672 mmHg 88%
    17:00 +1°C° 0 mm 3 mps 672 mmHg 88%
    18:00 +1°C° 0 mm 3 mps 672 mmHg 88%
    19:00 0°C° 0 mm 3 mps 672 mmHg 87%
    20:00 0°C° 0 mm 3 mps 672 mmHg 86%
    21:00 0°C° 0 mm 3 mps 672 mmHg 85%
    22:00 0°C° 0 mm 3 mps 672 mmHg 85%
    23:00 0°C° 0 mm 3 mps 672 mmHg 84%

    23 November, Saturday

    Time Temperature Precipitation Wind Pressure Humidity
    00:00 -1°C° 0 mm 4 mps 671 mmHg 84%
    01:00 -1°C° 0 mm 4 mps 671 mmHg 84%
    02:00 -1°C° 0 mm 4 mps 671 mmHg 84%
    03:00 -1°C° 0 mm 4 mps 671 mmHg 84%
    04:00 0°C° 0 mm 3 mps 670 mmHg 84%
    05:00 0°C° 0 mm 3 mps 670 mmHg 84%
    06:00 0°C° 0 mm 3 mps 670 mmHg 84%
    07:00 0°C° 0 mm 3 mps 670 mmHg 84%
    08:00 +1°C° 0 mm 3 mps 671 mmHg 83%
    09:00 +2°C° 0 mm 3 mps 671 mmHg 81%
    10:00 +4°C° 0 mm 3 mps 672 mmHg 80%
    11:00 +6°C° 0 mm 2 mps 672 mmHg 80%
    12:00 +6°C° 0 mm 2 mps 672 mmHg 80%
    13:00 +7°C° 0 mm 2 mps 672 mmHg 80%
    14:00 +6°C° 0 mm 2 mps 672 mmHg 83%
    15:00 +5°C° 0 mm 2 mps 672 mmHg 87%
    16:00 +4°C° 0 mm 2 mps 672 mmHg 90%
    17:00 +3°C° 0 mm 2 mps 673 mmHg 90%
    18:00 +3°C° 0 mm 2 mps 673 mmHg 89%
    19:00 +2°C° 0 mm 2 mps 673 mmHg 88%
    20:00 +2°C° 0 mm 2 mps 674 mmHg 88%
    21:00 +1°C° 0 mm 2 mps 674 mmHg 87%
    22:00 +1°C° 0 mm 2 mps 675 mmHg 87%
    23:00 +2°C° 0 mm 1 mps 675 mmHg 86%
    Show more